This is the latest recevied weather packets stored in our database for station/object OE5ERN-10. If no packets are shown the sender has not sent any weather packets the latest 10 day(s).
| Time | Temp. | Humidity | Pressure | Rain* | Wind** | Luminosity | Snow |
|---|---|---|---|---|---|---|---|
| 1777617641 | 30° C | 22% | 1033.6 hPa | 0 mm | - | - | - |
| 1777616741 | 27.78° C | 25% | 1033.5 hPa | 0 mm | - | - | - |
| 1777615841 | 25° C | 29% | 1033.5 hPa | 0 mm | - | - | - |
| 1777614941 | 22.22° C | 33% | 1033.4 hPa | 0 mm | - | - | - |
| 1777614041 | 15.56° C | 46% | 1033.4 hPa | 0 mm | - | - | - |
| 1777613141 | 6.11° C | 72% | 1033.3 hPa | 0 mm | - | - | - |
| 1777612241 | 3.89° C | 72% | 1033.3 hPa | 0 mm | - | - | - |
| 1777611342 | 2.78° C | 74% | 1033.1 hPa | 0 mm | - | - | - |
| 1777609542 | 0.56° C | 76% | 1032.7 hPa | 0 mm | - | - | - |
| 1777608641 | 0° C | 76% | 1032.7 hPa | 0 mm | - | - | - |
| 1777607742 | 0° C | 76% | 1032.7 hPa | 0 mm | - | - | - |
| 1777606842 | -0.56° C | 75% | 1032.5 hPa | 0 mm | - | - | - |
| 1777605942 | 0° C | 74% | 1032.8 hPa | 0 mm | - | - | - |
| 1777605042 | 0.56° C | 73% | 1032.6 hPa | 0 mm | - | - | - |
| 1777604142 | 0.56° C | 73% | 1032.5 hPa | 0 mm | - | - | - |
| 1777603242 | 0.56° C | 74% | 1032.5 hPa | 0 mm | - | - | - |
| 1777602342 | 0.56° C | 73% | 1032.4 hPa | 0 mm | - | - | - |
| 1777601442 | 0.56° C | 72% | 1032.6 hPa | 0 mm | - | - | - |
| 1777600542 | 0.56° C | 72% | 1032.6 hPa | 0 mm | - | - | - |
| 1777599642 | 0.56° C | 71% | 1032.6 hPa | 0 mm | - | - | - |
| 1777598742 | 0.56° C | 70% | 1032.4 hPa | 0 mm | - | - | - |
| 1777597842 | 1.11° C | 69% | 1032.4 hPa | 0 mm | - | - | - |
| 1777596942 | 1.11° C | 69% | 1032.4 hPa | 0 mm | - | - | - |
| 1777596042 | 1.11° C | 67% | 1032.4 hPa | 0 mm | - | - | - |
| 1777595142 | 1.11° C | 67% | 1032.7 hPa | 0 mm | - | - | - |
* Rain latest hour (hover to see other rain measurements)
** Current wind speed in m/s (hover to see current wind gust speed)